[[{"header":{"parameterUnit":"m.s-1","parameterCategory":2,"la1":30.2992,"la2":30.254,"lo1":-89.0895,"lo2":-89.0443,"dy":0.0025,"dx":0.0025,"nx":19,"ny":19,"refTime":"2026-04-03T21:00:00:Z","depth":"0","parameterNumber":2,"parameterNumberName":"U-component_of_CURRENTS"},"data":[0,0,0,0.2861,0.2864,0.2954,0.2954,0.2927,0.2926,0,0,0,0,0,0,0,0,0,0,0,0.2821,0.2822,0.2861,0.2864,0.2954,0.2954,0.2927,0.2926,0,0,0,0,0,0,0,0,0,0,0,0.282,0.2821,0.2823,0.2865,0.2954,0.2954,0.2927,0.2888,0,0,0,0,0,0,0,0,0,0,0.2816,0.28,0.2821,0.2823,0.2865,0.2954,0.2954,0.2888,0.2891,0.2853,0,0.2885,0,0.2918,0.2924,0.2924,0,0,0,0.2839,0.2798,0.2837,0.2823,0.2866,0.2954,0.2906,0.289,0.2893,0.2856,0.2886,0.2886,0.2918,0.2923,0.2923,0.2907,0.2907,0,0,0.2834,0.2815,0.2836,0.284,0.2911,0.2904,0.291,0.2894,0.2893,0.2886,0.2886,0.2917,0.2923,0.2923,0.2907,0.2907,0,0,0,0.2837,0.2811,0.2853,0.284,0.2875,0.2907,0.2914,0.2893,0.2913,0.2886,0.2917,0.2923,0.2922,0.2906,0.2907,0.292,0,0,0,0.2832,0.2815,0.2851,0.2837,0.2877,0.2904,0.2913,0.2913,0.2914,0.2917,0.2923,0.2922,0.2906,0.2906,0.2919,0.2936,0,0,0,0.2813,0.2812,0.2834,0.2836,0.289,0.2906,0.2923,0.2915,0.2932,0.2924,0.2922,0.2906,0.2906,0.2919,0.2934,0.3,0,0,0,0.2774,0.2826,0.2833,0.2888,0.289,0.2918,0.2924,0.2933,0.2925,0.2923,0.2906,0.2907,0.2918,0.2933,0.2998,0.3,0.3008,0,0,0.282,0.283,0.2862,0.2872,0.2887,0.2903,0.2912,0.2911,0.2916,0.2896,0.2897,0.2919,0.2934,0.2999,0.3017,0.3025,0,0,0,0.2864,0.287,0.2881,0.2892,0.2912,0.2903,0.2907,0.2925,0.2936,0.2922,0.2922,0.2931,0.2972,0.2969,0.2975,0.2982,0.2908,0.2908,0.2908,0.2846,0.286,0.2856,0.286,0.2872,0.2891,0.2914,0.2932,0.2923,0.2943,0.2943,0.3003,0.2998,0.3003,0.3009,0.2939,0.2939,0.2939,0.2939,0.2829,0.2805,0.28,0.2805,0.2803,0.2809,0.2883,0.2918,0.2994,0.2965,0.3005,0.2983,0.3011,0.3015,0.294,0.294,0.294,0.294,0.294,0.2756,0.2743,0.2749,0.2715,0.2712,0.2757,0.2829,0.2916,0.3001,0.3049,0.3078,0.3077,0.3084,0.3078,0.3078,0.3078,0.3079,0.3079,0.3079,0.2671,0.2673,0.2627,0.2621,0.26,0.2657,0.2803,0.2904,0.3052,0.3107,0.3108,0.3103,0.3046,0.3045,0.3085,0.3084,0.3083,0.3082,0.3082,0.2581,0.2585,0.2508,0.2477,0.2463,0.2481,0.2675,0.2902,0.3048,0.3128,0.3189,0.3151,0.316,0.3154,0.3155,0.3222,0.3222,0.3222,0.3222,0.25,0.2505,0.2377,0.231,0.2303,0.239,0.2497,0.2734,0.3045,0.3166,0.325,0.3199,0.3193,0.3201,0.3194,0.3195,0.327,0.327,0.327,0.2415,0.2393,0.227,0.2221,0.22,0.229,0.2325,0.2503,0.2988,0.3272,0.3263,0.3261,0.3184,0.3174,0.3179,0.3169,0.3167,0,0]},{"header":{"parameterUnit":"m.s-1","parameterCategory":2,"la1":30.2992,"la2":30.254,"lo1":-89.0895,"lo2":-89.0443,"dy":0.0025,"dx":0.0025,"nx":19,"ny":19,"refTime":"2026-04-03T21:00:00:Z","depth":"0","parameterNumber":3,"parameterNumberName":"V-component_of_CURRENTS"},"data":[0,0,0,0.008,0.0079,0.0019,0.0018,-0.01,-0.0101,0,0,0,0,0,0,0,0,0,0,0,0.0099,0.0099,0.008,0.0079,0.0019,0.0018,-0.01,-0.0101,0,0,0,0,0,0,0,0,0,0,0,0.0099,0.0099,0.0099,0.0079,0.0019,0.0018,-0.01,-0.0048,0,0,0,0,0,0,0,0,0,0,0.0014,0.0045,0.0099,0.0099,0.0079,0.0019,0.0018,-0.0045,-0.0051,-0.0079,0,-0.0078,0,-0.0086,-0.0108,-0.0109,0,0,0,0.0063,0.005,0.0036,0.0099,0.0078,0.0019,0.0041,-0.0048,-0.0055,-0.0087,-0.008,-0.0084,-0.0087,-0.0109,-0.011,-0.0136,-0.0135,0,0,0.0066,0.0081,0.0041,0.0033,0.0075,0.0043,0.004,-0.0052,-0.0056,-0.008,-0.0086,-0.0089,-0.011,-0.0111,-0.0136,-0.0136,0,0,0,0.0087,0.0083,0.0072,0.0037,0.0033,0.0042,0.0038,-0.0053,-0.0055,-0.0088,-0.0091,-0.011,-0.0112,-0.0137,-0.0136,-0.0021,0,0,0,0.0088,0.0096,0.0074,0.008,0.0036,-0.0004,0.004,-0.0049,-0.0059,-0.009,-0.011,-0.0113,-0.0137,-0.0136,-0.0025,0.0046,0,0,0,0.01,0.0097,0.0095,0.0082,0.0063,-0.0003,-0.0011,-0.0051,-0.0061,-0.0109,-0.0113,-0.0138,-0.0137,-0.0029,0.0038,0.0091,0,0,0,0.0109,0.0147,0.0096,0.0136,0.0064,0.0067,-0.0011,-0.0026,-0.0058,-0.0111,-0.0137,-0.0136,-0.003,0.0033,0.0086,0.0177,0.0205,0,0,0.0172,0.0154,0.0181,0.0135,0.0173,0.0073,0.0096,0.0018,-0.0051,-0.0115,-0.0116,-0.0024,0.0037,0.009,0.025,0.0277,0,0,0,0.0212,0.0235,0.0236,0.0241,0.021,0.0185,0.0098,0.006,0.001,-0.0062,-0.003,0.0005,0.0034,0.0078,0.01,-0.001,-0.013,-0.013,-0.013,0.0314,0.0304,0.0351,0.0334,0.0322,0.0257,0.0235,0.0163,0.0078,0.0079,0.0093,0.0208,0.0256,0.0273,0.0159,0.0075,0.0076,0.0076,0.0076,0.0431,0.0462,0.0437,0.0479,0.0432,0.0428,0.035,0.0298,0.0277,0.0191,0.0213,0.0192,0.0304,0.0173,0.0084,0.0082,0.0081,0.0081,0.008,0.0504,0.0519,0.0533,0.0571,0.0585,0.0528,0.058,0.0498,0.0396,0.0423,0.0439,0.0438,0.0326,0.0426,0.0427,0.0428,0.0428,0.0428,0.0429,0.0569,0.0587,0.0635,0.0666,0.0687,0.073,0.0708,0.0711,0.0664,0.059,0.0589,0.0364,0.0314,0.0305,0.0438,0.0436,0.0435,0.0434,0.0433,0.0667,0.0662,0.0737,0.077,0.085,0.0971,0.0947,0.0987,0.0946,0.0949,0.0633,0.0661,0.0633,0.0614,0.0611,0.0815,0.0815,0.0815,0.0815,0.0721,0.0729,0.0822,0.0894,0.1002,0.1081,0.126,0.1262,0.1024,0.0871,0.0726,0.0646,0.0636,0.0599,0.0581,0.0573,0.0763,0.0762,0.0762,0.0781,0.0797,0.0871,0.094,0.1061,0.1228,0.1412,0.1495,0.1101,0.0741,0.0557,0.056,0.0416,0.0408,0.0322,0.0306,0.0282,0,0]}],[{"header":{"parameterUnit":"m.s-1","parameterCategory":2,"la1":30.2992,"la2":30.254,"lo1":-89.0895,"lo2":-89.0443,"dy":0.0025,"dx":0.0025,"nx":19,"ny":19,"refTime":"2026-04-03T21:00:00:Z","depth":"2","parameterNumber":2,"parameterNumberName":"U-component_of_CURRENTS"},"data":[0,0,0,0.2607,0.2609,0.2686,0.2686,0.2736,0.2737,0,0,0,0,0,0,0,0,0,0,0,0.2581,0.2582,0.2606,0.2609,0.2686,0.2686,0.2736,0.2737,0,0,0,0,0,0,0,0,0,0,0,0.2581,0.2582,0.2583,0.2609,0.2686,0.2686,0.2736,0.2686,0,0,0,0,0,0,0,0,0,0,0.2615,0.2587,0.2582,0.2583,0.261,0.2686,0.2686,0.2684,0.2689,0.2693,0,0.2724,0,0.274,0.2741,0.2741,0,0,0,0.2591,0.2582,0.2626,0.2583,0.2611,0.2686,0.2646,0.2687,0.2693,0.27,0.2725,0.2727,0.274,0.2741,0.2742,0.2809,0.2809,0,0,0.2587,0.2568,0.2622,0.263,0.2655,0.2644,0.2649,0.2691,0.2693,0.2725,0.2729,0.2741,0.2742,0.2742,0.2808,0.2809,0,0,0,0.2587,0.2565,0.2607,0.2628,0.265,0.2647,0.2652,0.269,0.2712,0.2729,0.2742,0.2742,0.2743,0.2808,0.2809,0.2831,0,0,0,0.2583,0.2567,0.2606,0.2591,0.265,0.2674,0.2651,0.2709,0.2714,0.2742,0.2742,0.2743,0.2808,0.2808,0.283,0.2842,0,0,0,0.2573,0.2565,0.2587,0.2591,0.2635,0.2674,0.2696,0.271,0.2722,0.2741,0.2743,0.2808,0.2808,0.2828,0.284,0.2903,0,0,0,0.2532,0.2578,0.2586,0.2621,0.2635,0.2691,0.2696,0.2733,0.2752,0.2742,0.2808,0.2809,0.2828,0.2839,0.2901,0.2868,0.2875,0,0,0.2568,0.2581,0.2597,0.2608,0.2658,0.2678,0.2719,0.275,0.2761,0.2787,0.2789,0.283,0.284,0.2902,0.2908,0.2914,0,0,0,0.2593,0.2599,0.2617,0.2641,0.2689,0.2722,0.2755,0.2778,0.2816,0.2781,0.2838,0.2844,0.2883,0.2858,0.2863,0.2812,0.2812,0.2812,0.2812,0.2575,0.2596,0.2614,0.2648,0.2687,0.2754,0.2792,0.2828,0.2835,0.2861,0.2868,0.2937,0.2911,0.2914,0.2873,0.2873,0.2873,0.2873,0.2873,0.2563,0.2555,0.2585,0.2616,0.2674,0.2718,0.2812,0.2847,0.293,0.2904,0.2941,0.2889,0.2921,0.2875,0.2875,0.2875,0.2875,0.2874,0.2874,0.2501,0.2509,0.253,0.2559,0.2611,0.2691,0.2773,0.2863,0.2945,0.299,0.2992,0.299,0.2965,0.302,0.302,0.302,0.3021,0.3021,0.3021,0.2434,0.246,0.2452,0.2495,0.2514,0.2599,0.2756,0.285,0.2978,0.3022,0.3022,0.2988,0.2983,0.2975,0.3026,0.3025,0.3025,0.3024,0.3024,0.236,0.2373,0.2351,0.236,0.2411,0.2435,0.2629,0.2823,0.2959,0.3018,0.3052,0.305,0.3048,0.3043,0.3037,0.3102,0.3102,0.3102,0.3102,0.2291,0.2302,0.2249,0.2234,0.2265,0.2352,0.2423,0.2585,0.2818,0.2889,0.2897,0.2824,0.2827,0.2808,0.2808,0.2795,0.2797,0.2796,0.2795,0.2226,0.2226,0.2156,0.2154,0.2173,0.2248,0.2232,0.2247,0.2487,0.2776,0.2767,0.3097,0.301,0.3006,0.2993,0.2987,0.2972,0,0]},{"header":{"parameterUnit":"m.s-1","parameterCategory":2,"la1":30.2992,"la2":30.254,"lo1":-89.0895,"lo2":-89.0443,"dy":0.0025,"dx":0.0025,"nx":19,"ny":19,"refTime":"2026-04-03T21:00:00:Z","depth":"2","parameterNumber":3,"parameterNumberName":"V-component_of_CURRENTS"},"data":[0,0,0,0.0051,0.005,-0.0003,-0.0003,-0.0115,-0.0116,0,0,0,0,0,0,0,0,0,0,0,0.0068,0.0068,0.0051,0.005,-0.0002,-0.0003,-0.0114,-0.0116,0,0,0,0,0,0,0,0,0,0,0,0.0068,0.0068,0.0068,0.005,-0.0002,-0.0003,-0.0114,-0.0067,0,0,0,0,0,0,0,0,0,0,-0.0012,0.0015,0.0068,0.0068,0.005,-0.0002,-0.0003,-0.0064,-0.007,-0.0099,0,-0.0098,0,-0.0104,-0.0123,-0.0123,0,0,0,0.0036,0.002,0.0009,0.0068,0.0049,-0.0002,0.0017,-0.0067,-0.0073,-0.0107,-0.0099,-0.0103,-0.0106,-0.0123,-0.0124,-0.0157,-0.0156,0,0,0.0039,0.005,0.0014,0.0005,0.0046,0.0019,0.0016,-0.0071,-0.0076,-0.01,-0.0106,-0.0108,-0.0124,-0.0125,-0.0157,-0.0156,0,0,0,0.0057,0.0052,0.0044,0.001,0.0007,0.0018,0.0014,-0.0072,-0.0073,-0.0107,-0.0109,-0.0125,-0.0126,-0.0158,-0.0157,-0.0053,0,0,0,0.0058,0.0064,0.0046,0.005,0.0009,-0.0027,0.0015,-0.0068,-0.0077,-0.0108,-0.0125,-0.0127,-0.0158,-0.0157,-0.0057,0.0009,0,0,0,0.0068,0.0064,0.0063,0.0051,0.0035,-0.0026,-0.0033,-0.007,-0.0078,-0.0123,-0.0127,-0.0158,-0.0157,-0.006,0.0002,0.0047,0,0,0,0.0074,0.0107,0.0063,0.0097,0.0036,0.0038,-0.0032,-0.0048,-0.0078,-0.0125,-0.0158,-0.0157,-0.0061,-0.0002,0.0043,0.0114,0.0139,0,0,0.0128,0.0113,0.0136,0.0097,0.0129,0.0043,0.0061,-0.0012,-0.0075,-0.0137,-0.0138,-0.0055,0.0002,0.0047,0.0175,0.0199,0,0,0,0.0162,0.018,0.0181,0.0185,0.0159,0.014,0.006,0.0024,-0.0024,-0.0086,-0.0063,-0.003,-0.0005,0.0028,0.0047,-0.0152,-0.0152,-0.0152,-0.0152,0.0242,0.0237,0.0278,0.0266,0.0257,0.0199,0.0179,0.0112,0.0034,0.0033,0.0048,0.0148,0.0185,0.02,0.0029,0.0029,0.003,0.003,0.003,0.0339,0.0367,0.0352,0.039,0.0355,0.0351,0.028,0.0232,0.021,0.0134,0.0152,0.0129,0.0227,0.0039,0.0037,0.0036,0.0035,0.0034,0.0034,0.0396,0.0411,0.0429,0.0472,0.0491,0.0443,0.0491,0.0415,0.0319,0.0342,0.0349,0.0347,0.022,0.0344,0.0345,0.0345,0.0346,0.0346,0.0347,0.0445,0.0467,0.0519,0.0555,0.0585,0.0629,0.0611,0.061,0.0558,0.0485,0.0484,0.0254,0.0244,0.0237,0.0354,0.0353,0.0352,0.0351,0.0351,0.0515,0.0522,0.0605,0.0648,0.074,0.085,0.0829,0.0853,0.0811,0.0804,0.055,0.0542,0.0515,0.0499,0.0498,0.0676,0.0676,0.0676,0.0676,0.0554,0.0566,0.0679,0.0768,0.088,0.0952,0.1099,0.1066,0.0915,0.0789,0.0784,0.0728,0.0713,0.0691,0.067,0.0669,0.0892,0.0893,0.0893,0.0596,0.0627,0.0714,0.0807,0.0936,0.1084,0.1223,0.1202,0.0977,0.0897,0.0781,0.0698,0.0597,0.0581,0.0526,0.0502,0.0491,0,0]}],[{"header":{"parameterUnit":"m.s-1","parameterCategory":2,"la1":30.2992,"la2":30.254,"lo1":-89.0895,"lo2":-89.0443,"dy":0.0025,"dx":0.0025,"nx":19,"ny":19,"refTime":"2026-04-03T21:00:00:Z","depth":"4","parameterNumber":2,"parameterNumberName":"U-component_of_CURRENTS"},"data":[0,0,0,0.1636,0.1641,0.1864,0.1865,0.2074,0.2075,0,0,0,0,0,0,0,0,0,0,0,0.156,0.1561,0.1636,0.1641,0.1864,0.1865,0.2074,0.2075,0,0,0,0,0,0,0,0,0,0,0,0.1559,0.1561,0.1562,0.1642,0.1864,0.1865,0.2073,0.1927,0,0,0,0,0,0,0,0,0,0,0.1721,0.1669,0.156,0.1562,0.1643,0.1864,0.1866,0.1921,0.1936,0.1947,0,0.1981,0,0.2027,0.2087,0.2087,0,0,0,0.1654,0.1657,0.1702,0.1563,0.1645,0.1863,0.1767,0.193,0.1947,0.1966,0.1985,0.1993,0.203,0.2088,0.2088,0.2271,0.2272,0,0,0.1642,0.1616,0.1691,0.1713,0.1702,0.176,0.1774,0.1942,0.1965,0.1985,0.1999,0.2034,0.2089,0.209,0.227,0.2271,0,0,0,0.1598,0.1607,0.1651,0.1703,0.1747,0.1766,0.1782,0.1958,0.1969,0.2001,0.2036,0.209,0.2092,0.2269,0.227,0.2305,0,0,0,0.1591,0.1581,0.1645,0.1635,0.1744,0.1869,0.1795,0.1958,0.1978,0.2035,0.209,0.2093,0.2268,0.227,0.2303,0.2306,0,0,0,0.155,0.1577,0.1599,0.1632,0.1722,0.1868,0.1891,0.1964,0.1998,0.2087,0.2094,0.2268,0.227,0.23,0.2303,0.2358,0,0,0,0.1521,0.1554,0.1599,0.1662,0.172,0.1864,0.189,0.2021,0.2102,0.2091,0.2269,0.227,0.2299,0.2301,0.2355,0.2068,0,0,0,0.1537,0.1556,0.1594,0.1638,0.1762,0.1834,0.1977,0.2093,0.2128,0.2208,0.2214,0.2304,0.2303,0.2357,0.2178,0,0,0,0,0.1583,0.1611,0.1657,0.1748,0.1854,0.1971,0.2091,0.2141,0.2254,0.2183,0.2331,0.2329,0.2363,0.2189,0.2279,0.2279,0.2279,0.2278,0.2278,0.1555,0.1628,0.1713,0.1822,0.1922,0.2087,0.2178,0.2268,0.2301,0.2358,0.2379,0.247,0.2289,0.2408,0.2408,0.2409,0.2409,0.2409,0.2409,0.1572,0.1613,0.1742,0.1851,0.1988,0.2122,0.2277,0.233,0.2453,0.2442,0.2474,0.2262,0.2413,0.2412,0.2412,0.2411,0.2411,0.2411,0.241,0.152,0.1551,0.1653,0.1822,0.1981,0.2145,0.2264,0.2387,0.248,0.2527,0.2368,0.2505,0.248,0.2563,0.2563,0.2563,0.2563,0.2564,0.2564,0.1413,0.1516,0.1612,0.1791,0.1899,0.2059,0.2272,0.2348,0.2473,0.2379,0.2553,0.2522,0.2517,0.249,0.2568,0.2567,0.2567,0.2566,0.2566,0.1334,0.1399,0.152,0.1629,0.1845,0.1924,0.2153,0.2228,0.2294,0.2276,0.2303,0.2315,0.2277,0.2279,0.2241,0.2249,0.2246,0.2242,0,0.126,0.1306,0.1454,0.1571,0.1674,0.1835,0.1855,0.1976,0.2086,0.2015,0.2308,0.2335,0.2342,0.2297,0.2293,0.2246,0,0,0,0.122,0.1282,0.1344,0.1488,0.1581,0.1681,0.1848,0.1819,0.2069,0.2039,0.2157,0.2179,0.2417,0.2581,0.2553,0.2547,0.2502,0,0]},{"header":{"parameterUnit":"m.s-1","parameterCategory":2,"la1":30.2992,"la2":30.254,"lo1":-89.0895,"lo2":-89.0443,"dy":0.0025,"dx":0.0025,"nx":19,"ny":19,"refTime":"2026-04-03T21:00:00:Z","depth":"4","parameterNumber":3,"parameterNumberName":"V-component_of_CURRENTS"},"data":[0,0,0,0.0113,0.0113,0.0065,0.0065,-0.004,-0.004,0,0,0,0,0,0,0,0,0,0,0,0.0127,0.0127,0.0113,0.0113,0.0065,0.0065,-0.0039,-0.004,0,0,0,0,0,0,0,0,0,0,0,0.0127,0.0127,0.0127,0.0113,0.0065,0.0065,-0.0039,0.0003,0,0,0,0,0,0,0,0,0,0,0.0053,0.0075,0.0127,0.0127,0.0112,0.0065,0.0064,0.0006,0.0001,-0.0025,0,-0.0022,0,-0.0026,-0.0047,-0.0047,0,0,0,0.0096,0.0079,0.0074,0.0127,0.0112,0.0065,0.0082,0.0003,-0.0003,-0.0032,-0.0023,-0.0027,-0.0028,-0.0048,-0.0048,-0.0093,-0.0092,0,0,0.0099,0.0106,0.0078,0.0071,0.0112,0.0083,0.0081,0.0,-0.0006,-0.0024,-0.0029,-0.003,-0.0048,-0.0049,-0.0093,-0.0093,0,0,0,0.0117,0.0108,0.0105,0.0075,0.0074,0.0082,0.0079,-0.0003,-0.0001,-0.003,-0.0031,-0.0049,-0.005,-0.0093,-0.0093,-0.0015,0,0,0,0.0118,0.012,0.0107,0.0108,0.0076,0.004,0.0078,0.0004,-0.0005,-0.0031,-0.0049,-0.0051,-0.0093,-0.0093,-0.0018,0.0034,0,0,0,0.0127,0.0121,0.0121,0.0109,0.0097,0.0042,0.0037,0.0002,-0.0005,-0.0047,-0.0051,-0.0094,-0.0093,-0.002,0.0029,0.0059,0,0,0,0.0127,0.0149,0.0121,0.014,0.0098,0.0091,0.0038,0.0015,-0.0015,-0.0049,-0.0093,-0.0093,-0.0021,0.0026,0.0056,0.0089,0,0,0,0.0161,0.0153,0.0166,0.0141,0.0155,0.0095,0.0096,0.0032,-0.0018,-0.0074,-0.0075,-0.0017,0.0028,0.0058,0.012,0,0,0,0,0.018,0.019,0.0189,0.0188,0.0167,0.0149,0.0084,0.0054,0.0008,-0.003,-0.0028,-0.0001,0.0015,0.0025,-0.009,-0.009,-0.009,-0.009,-0.009,0.0224,0.0221,0.0243,0.0234,0.0224,0.0178,0.0159,0.0105,0.0046,0.004,0.0053,0.012,0.0132,0.0032,0.0033,0.0033,0.0033,0.0033,0.0034,0.0277,0.0291,0.0286,0.0309,0.0287,0.0279,0.0224,0.0187,0.0165,0.011,0.0121,0.0095,0.0041,0.0039,0.0038,0.0038,0.0037,0.0036,0.0036,0.0301,0.0311,0.0327,0.036,0.0377,0.0346,0.0382,0.0325,0.0247,0.0262,0.0254,0.0173,0.0176,0.0263,0.0263,0.0263,0.0264,0.0264,0.0264,0.0315,0.0336,0.0377,0.0411,0.0443,0.0482,0.0475,0.0467,0.0393,0.0359,0.0291,0.0197,0.0189,0.0188,0.027,0.0269,0.0268,0.0268,0.0267,0.0333,0.0352,0.0419,0.0461,0.055,0.0587,0.0593,0.0572,0.0566,0.0522,0.0394,0.0386,0.0363,0.0351,0.0355,0.0489,0.049,0.049,0,0.0343,0.0357,0.0454,0.0537,0.0626,0.0648,0.0686,0.0671,0.0568,0.0554,0.0533,0.0389,0.0382,0.0353,0.0344,0.0348,0,0,0,0.0349,0.0384,0.0453,0.055,0.0652,0.0686,0.0698,0.068,0.0588,0.0591,0.051,0.0505,0.0398,0.0287,0.0231,0.0222,0.0218,0,0]}]]